Showing default

GSAT 16, 40332

Orbit data source: Space-Track

GSAT 16, 40332 is a payload satellite owned by ISRO (IN) in GEO that was launched on Sat, 06 Dec 2014 UTC via an ARIANE 5ECA launch vehicle from the French Guiana (FRGUI). Payload-class satellites include a variety of spacecraft equipped with specific instruments for various scientific and technological missions. These include communications satellites like Starlink; space stations such as the ISS; scientific satellites like the Hubble; Earth observation satellites from companies like Planet Labs, Umbra, and HawkEye 360; GPS; miniature CubeSats for education and research; and military/defense satellites.

Not visible in the next 10 days
Identifier
40332, 2014-078A
Orbit
GEO
Country
Flag of ININ / IND
Related business
Manufacturer
ISRO SAC/Banga
Mission
Operational Civil Communications
Bus & Motor
I3K, ISRO LAM
Mass
3,180 kg wet, 2,000 kg dry
Launch date (UTC)
2014-12-06 (11 years ago)
Launch vehicle
ARIANE 5ECA
Launch site
French Guiana (FRGUI)
Object type
Payload
Rocket body
Debris
Shape & HBR
Box + 2 Pan, 7.7 m
Radar Cross Section
12.980 m², Large (>1 m²)

Expand to show TLE details & history
Last TLE update: 9 hours ago

TLE from 9 hours ago
0 GSAT 16
1 40332U 14078A   26061.82267102  .00000068  00000-0  00000+0 0  9998
2 40332   0.0402 272.2559 0004437 164.9216  74.6502  1.00273385 41041
Epoch: 2026-03-02T19:44Z
TLE epoch observation values (Epoch: 2026-03-02T19:44:38.776Z)
Latitude
-0.01618°
Longitude
55.14087°
Altitude
35,780.714 km
Speed
3.075 km/s
True Right ascension
10h 07m 39s
True Declination
0° 00' 58"
Sunlit
Object was in daylight at epoch
Visualization orbit readout
Latitude
Unknown
Longitude
Unknown
Altitude
Unknown
Speed
Unknown
Apparent Right ascension
Unknown
Apparent Declination
Unknown
Sunlit
N/A
Visualization observer readout
Local Sidereal Time
08:54:47
Azimuth
Unknown
Elevation
Unknown
Doppler factor
Unknown
Orbital elements
Apogee altitude
35,805.926 km
Perigee altitude
35,768.508 km
Semi-major axis
42,165.354 km
Eccentricity
0.00044
Inclination
0.0402°
RAAN
272.2559°
Arg. of periapsis
164.9216°
True anomaly
74.69924°
Mean anomaly
74.6502°
Eccentric anomaly
74.67472°
Mean motion
0.25067 °/min
Orbital period
1,436.13 mins
BSTAR
0
Loading maneuver chart data...
Computing Atmospheric mass density...
Loading historical data...
Loading historical data...
Loading historical data...
Loading historical data...
Loading historical data...
Loading historical data...
Loading historical data...
Other satellites on launch #78 in the year 2014 (2014-12-06 UTC)

Documentation

Showing up to 5 results
|